Weather History for Anvik, AK

Change the Weather History Date:

Wednesday, June 26, 2013

  Actual Average Record
Temperature  
Mean Temperature 67 °F -  
Max Temperature 75 °F 63 °F 75 °F (2005)
Min Temperature 59 °F 47 °F 44 °F (2001)
Cooling Degree Days 2    
Growing Degree Days 17 (Base 50)    
Moisture  
Dew Point 51 °F    
Average Humidity 59    
Maximum Humidity 77    
Minimum Humidity 44    
Precipitation  
Precipitation 0.09 in - - ()
Sea Level Pressure  
Sea Level Pressure 29.79 in    
Wind  
Wind Speed 7 mph (West)    
Max Wind Speed 15 mph    
Max Gust Speed 21 mph    
Visibility 10 miles    
Events      
Averages and records for this station are not official NWS values.
T = Trace of Precipitation, MM = Missing Value Source: NWS Daily Summary

Daily Weather History Graph

Daily Weather History Graph

Search for Another Location

Airport:

Trip Planner

Search our weather history database for the weather conditions in past years. The results will help you decide how hot, cold, wet, or windy it might be!

Date:

Astronomy

Jun. 26, 2013 Rise Set
Actual Time 4:42 AM AKDT 12:44 AM AKDT
Civil Twilight 3:16 AM AKDT 2:11 AM AKDT
Nautical Twilight Sun does not rise Sun does not rise
Astronomical Twilight Sun does not rise Sun does not rise
Moon 1:00 AM AKDT (6/26) 10:33 AM AKDT (6/26)
Length of Visible Light 22h 55m
Length of Day
20h 01m
Waning Gibbous, 84% of the Moon is Illuminated
Jun 26
Waning Gibbous
Jun 29
Last Quarter
Jul 7
New
Jul 15
First Quarter
Jul 22
Full

Hourly Weather History & Observations

Time (AKDT) Temp. Dew Point Humidity Pressure Visibility Wind Dir Wind Speed Gust Speed Precip Events Conditions
12:16 AM 69.8 °F 53.6 °F 56% 29.70 in 10.0 mi SW 4.6 mph - 0.01 in   Partly Cloudy
12:36 AM 69.8 °F 51.8 °F 53% 29.71 in 10.0 mi WSW 4.6 mph - 0.01 in   Clear
12:56 AM 68.0 °F 51.8 °F 56% 29.71 in 10.0 mi WSW 5.8 mph - 0.01 in   Clear
1:16 AM 68.0 °F 50.0 °F 52% 29.71 in 10.0 mi WSW 4.6 mph - N/A   Clear
1:36 AM 66.2 °F 51.8 °F 60% 29.72 in 10.0 mi WSW 4.6 mph - N/A   Clear
1:56 AM 66.2 °F 51.8 °F 60% 29.72 in 10.0 mi SW 5.8 mph - N/A   Clear
2:16 AM 64.4 °F 51.8 °F 64% 29.72 in 10.0 mi SW 6.9 mph - N/A   Clear
2:36 AM 64.4 °F 51.8 °F 64% 29.72 in 10.0 mi SW 5.8 mph - N/A   Clear
2:56 AM 62.6 °F 51.8 °F 68% 29.73 in 10.0 mi WSW 5.8 mph - N/A   Clear
3:16 AM 62.6 °F 51.8 °F 68% 29.73 in 10.0 mi WSW 4.6 mph - N/A   Clear
3:36 AM 62.6 °F 51.8 °F 68% 29.73 in 10.0 mi WSW 4.6 mph - N/A   Clear
3:56 AM 60.8 °F 51.8 °F 72% 29.73 in 10.0 mi West 5.8 mph - N/A   Clear
4:16 AM 62.6 °F 50.0 °F 63% 29.74 in 10.0 mi West 6.9 mph - N/A   Clear
4:36 AM 62.6 °F 50.0 °F 63% 29.74 in 10.0 mi West 6.9 mph - N/A   Clear
4:56 AM 62.6 °F 48.2 °F 59% 29.74 in 10.0 mi West 4.6 mph - N/A   Clear
5:16 AM 60.8 °F 50.0 °F 68% 29.74 in 10.0 mi West 4.6 mph - N/A   Clear
5:36 AM 60.8 °F 50.0 °F 68% 29.74 in 10.0 mi West 3.5 mph - N/A   Clear
5:56 AM 60.8 °F 50.0 °F 68% 29.74 in 10.0 mi WSW 5.8 mph - N/A   Clear
6:16 AM 59.0 °F 50.0 °F 72% 29.75 in 10.0 mi WSW 5.8 mph - N/A   Clear
6:36 AM 59.0 °F 51.8 °F 77% 29.75 in 10.0 mi WSW 5.8 mph - N/A   Clear
6:56 AM 60.8 °F 50.0 °F 68% 29.76 in 10.0 mi West 3.5 mph - N/A   Clear
7:16 AM 60.8 °F 50.0 °F 68% 29.76 in 10.0 mi WSW 3.5 mph - N/A   Clear
7:36 AM 60.8 °F 51.8 °F 72% 29.77 in 10.0 mi WSW 3.5 mph - N/A   Clear
7:56 AM 60.8 °F 51.8 °F 72% 29.78 in 10.0 mi WSW 3.5 mph - N/A   Clear
8:16 AM 62.6 °F 51.8 °F 68% 29.78 in 10.0 mi West 4.6 mph - N/A   Clear
8:36 AM 62.6 °F 51.8 °F 68% 29.78 in 10.0 mi West 6.9 mph - N/A   Clear
8:56 AM 62.6 °F 51.8 °F 68% 29.78 in 10.0 mi WNW 8.1 mph - N/A   Clear
9:16 AM 62.6 °F 50.0 °F 63% 29.79 in 10.0 mi West 5.8 mph - N/A   Clear
9:36 AM 62.6 °F 50.0 °F 63% 29.79 in 10.0 mi WNW 6.9 mph - N/A   Clear
9:56 AM 62.6 °F 50.0 °F 63% 29.79 in 10.0 mi West 5.8 mph - N/A   Clear
10:16 AM 64.4 °F 51.8 °F 64% 29.79 in 10.0 mi WNW 4.6 mph - N/A   Clear
10:36 AM 66.2 °F 51.8 °F 60% 29.79 in 10.0 mi West 6.9 mph - N/A   Clear
10:56 AM 66.2 °F 51.8 °F 60% 29.79 in 10.0 mi WNW 6.9 mph - N/A   Clear
11:16 AM 68.0 °F 51.8 °F 56% 29.80 in 10.0 mi West 6.9 mph - N/A   Clear
11:36 AM 68.0 °F 51.8 °F 56% 29.80 in 10.0 mi WNW 6.9 mph - N/A   Clear
11:56 AM 68.0 °F 51.8 °F 56% 29.80 in 10.0 mi West 6.9 mph - N/A   Clear
12:16 PM 69.8 °F 53.6 °F 56% 29.80 in 10.0 mi WNW 9.2 mph - N/A   Clear
12:36 PM 69.8 °F 53.6 °F 56% 29.80 in 10.0 mi West 8.1 mph - N/A   Clear
12:56 PM 71.6 °F 53.6 °F 53% 29.80 in 10.0 mi West 8.1 mph - N/A   Clear
1:16 PM 71.6 °F 53.6 °F 53% 29.80 in 10.0 mi West 8.1 mph - N/A   Clear
3:16 PM 73.4 °F 51.8 °F 47% 29.81 in 10.0 mi WNW 10.4 mph 16.1 mph N/A   Clear
3:36 PM 73.4 °F 51.8 °F 47% 29.81 in 10.0 mi West 12.7 mph 17.3 mph N/A   Clear
3:56 PM 73.4 °F 51.8 °F 47% 29.81 in 10.0 mi West 10.4 mph - N/A   Clear
4:16 PM 73.4 °F 51.8 °F 47% 29.81 in 10.0 mi WSW 8.1 mph - N/A   Partly Cloudy
4:36 PM 73.4 °F 51.8 °F 47% 29.81 in 10.0 mi West 10.4 mph 18.4 mph N/A   Partly Cloudy
4:56 PM 73.4 °F 51.8 °F 47% 29.81 in 10.0 mi WSW 9.2 mph - N/A   Clear
5:16 PM 75.2 °F 51.8 °F 44% 29.81 in 10.0 mi WSW 11.5 mph 18.4 mph N/A   Partly Cloudy
5:36 PM 73.4 °F 51.8 °F 47% 29.82 in 10.0 mi West 11.5 mph 16.1 mph N/A   Clear
5:56 PM 75.2 °F 51.8 °F 44% 29.82 in 10.0 mi West 10.4 mph 17.3 mph N/A   Partly Cloudy
7:36 PM 71.6 °F 51.8 °F 50% 29.83 in 10.0 mi West 8.1 mph 17.3 mph N/A   Clear
7:56 PM 71.6 °F 51.8 °F 50% 29.84 in 10.0 mi WSW 12.7 mph 19.6 mph N/A   Clear
8:16 PM 71.6 °F 51.8 °F 50% 29.84 in 10.0 mi West 15.0 mph 20.7 mph N/A   Clear
8:36 PM 69.8 °F 51.8 °F 53% 29.85 in 10.0 mi West 11.5 mph 19.6 mph N/A   Clear
8:56 PM 69.8 °F 50.0 °F 49% 29.85 in 10.0 mi West 13.8 mph 18.4 mph 0.03 in   Clear
9:16 PM 66.2 °F 50.0 °F 56% 29.86 in 10.0 mi West 10.4 mph - N/A   Clear
9:36 PM 66.2 °F 48.2 °F 52% 29.87 in 10.0 mi West 11.5 mph 18.4 mph N/A   Clear
9:56 PM 64.4 °F 48.2 °F 56% 29.87 in 10.0 mi West 10.4 mph 18.4 mph N/A   Clear
10:16 PM 64.4 °F 48.2 °F 56% 29.88 in 10.0 mi West 11.5 mph - N/A   Clear
10:36 PM 62.6 °F 48.2 °F 59% 29.89 in 10.0 mi West 10.4 mph 17.3 mph N/A   Clear
10:56 PM 62.6 °F 48.2 °F 59% 29.89 in 10.0 mi West 10.4 mph 16.1 mph 0.02 in   Clear
11:16 PM 60.8 °F 48.2 °F 63% 29.90 in 10.0 mi West 8.1 mph 16.1 mph 0.02 in   Partly Cloudy
11:36 PM 60.8 °F 48.2 °F 63% 29.90 in 10.0 mi West 8.1 mph - 0.02 in   Partly Cloudy
11:56 PM 59.0 °F 48.2 °F 67% 29.91 in 10.0 mi West 9.2 mph - 0.03 in   Mostly Cloudy